Lid_Strength_Index
8 10 11 10 9 10 9 9 9 8 6 7 7 8 6 6 6 5 5 4 4 3 2 2 1 1 0 0 0 -0 0 -1 0 1 1 1 1 1 0 -0 -1 -1 -1 -1
10 12 9 9 9 10 10 10 10 7 7 7 7 8 6 5 6 5 5 4 4 3 3 2 1 1 1 1 0 0 -0 -0 0 0 0 0 0 0 0 -0 -0 -1 -1 -1
11 10 7 9 10 11 10 11 10 9 7 6 7 9 7 5 5 5 5 5 4 4 4 3 3 2 1 1 0 0 -0 -0 -0 -1 0 0 0 0 1 1 0 -0 -0 -1
8 6 7 7 8 8 11 9 9 9 9 12 7 13 8 7 6 5 4 5 5 5 4 4 3 3 2 1 0 -0 -0 -0 0 -0 0 1 2 2 1 1 0 0 -0 -0
9 8 8 9 8 7 9 7 8 8 9 10 10 11 9 7 7 6 5 4 5 5 5 4 4 3 2 1 1 0 -0 0 0 0 0 1 1 1 1 1 1 0 -0 -0
7 5 6 7 6 6 6 8 8 8 9 14 11 11 11 9 8 6 5 5 6 5 5 4 3 3 2 1 1 0 0 1 0 1 0 1 1 1 2 1 2 1 1 0
8 8 6 6 8 6 7 10 14 15 16 15 10 11 10 7 6 6 5 5 6 5 5 4 3 2 1 1 1 1 1 1 1 1 1 1 1 1 1 1 1 1 1 1
13 14 9 7 8 9 9 10 14 18 16 14 9 12 10 6 5 5 5 4 4 3 3 3 2 2 2 1 1 1 2 2 1 1 1 1 0 1 1 0 1 1 1 0
13 13 7 7 6 7 9 11 8 12 11 13 11 9 8 6 6 5 6 5 5 4 3 3 3 2 2 1 1 1 2 2 1 1 1 1 0 0 1 0 -0 0 -0 0
9 14 8 8 6 6 8 7 12 11 17 16 12 11 11 8 8 6 6 6 5 3 3 3 3 3 2 2 2 1 1 2 1 1 1 1 1 0 0 0 0 0 -0 -0
7 10 11 8 10 11 10 10 10 10 11 15 15 12 7 7 6 6 6 6 4 4 3 3 4 3 2 2 2 2 2 2 2 1 1 1 1 0 0 0 0 0 -0 -0
6 9 12 10 7 7 8 11 12 14 14 11 12 12 6 6 6 5 6 5 4 4 3 3 4 4 3 3 2 2 2 2 1 1 1 1 1 1 1 1 0 -0 0 -0
7 10 14 11 10 8 10 9 8 9 10 15 13 12 6 5 6 5 6 5 4 4 3 3 3 4 3 3 3 2 2 2 1 1 1 1 1 1 1 0 0 -0 0 -0
7 10 12 15 11 9 11 10 9 9 13 12 11 10 8 6 6 6 5 5 5 4 4 3 3 4 4 3 3 2 2 1 1 1 1 1 1 1 1 0 0 0 0 0
9 12 10 9 9 9 9 10 9 10 9 12 10 10 8 6 6 6 5 6 6 5 5 4 3 4 4 3 3 2 2 1 1 1 1 1 1 0 0 0 0 0 0 0
8 13 10 12 9 9 10 9 9 9 9 9 9 9 6 6 6 6 6 6 5 5 4 4 3 4 4 3 3 2 2 2 1 1 1 1 1 1 1 1 1 0 0 0
11 11 13 14 10 10 12 10 9 9 8 8 10 8 6 7 7 6 6 6 5 5 4 4 3 3 4 3 3 3 2 1 1 1 1 1 1 1 1 1 1 1 1 0
11 12 12 15 13 19 11 9 9 11 9 8 8 7 6 6 6 6 5 5 4 4 4 3 3 3 3 2 2 2 1 1 1 1 1 1 1 1 1 1 1 1 0 1
10 12 14 16 16 13 11 10 12 13 12 8 8 7 6 5 5 6 4 3 4 4 3 3 3 2 3 3 2 2 2 1 1 2 1 1 1 1 1 1 1 1 1 1
10 11 14 15 18 19 14 10 8 10 15 9 8 8 7 7 9 6 4 4 4 3 3 3 3 2 3 3 2 2 2 2 2 2 1 1 1 1 1 1 1 1 1 1
12 13 15 15 17 13 10 9 8 16 15 9 8 8 7 9 7 5 4 4 3 3 3 2 3 3 3 2 2 2 2 2 1 1 1 1 0 1 1 1 1 1 1 1
14 15 15 15 17 18 7 9 13 10 7 7 7 7 7 6 5 5 4 4 3 3 3 3 3 3 3 2 2 2 2 1 1 1 1 1 1 1 1 1 1 1 1 1
12 11 14 14 14 7 7 7 6 6 7 7 7 6 5 6 6 5 4 4 4 3 3 3 3 3 3 2 2 2 2 1 1 1 1 1 1 1 1 1 1 1 1 2
8 6 10 10 7 7 6 6 5 5 6 6 5 5 5 6 5 5 4 4 4 3 3 3 3 3 3 2 2 1 1 1 1 1 1 1 1 1 1 1 1 1 2 2
8 7 9 9 6 6 6 6 6 6 6 5 5 5 5 5 5 5 4 4 4 4 3 3 3 3 3 2 2 1 1 1 1 1 1 1 1 1 1 1 1 1 1 2
6 8 10 11 6 7 7 5 5 8 7 5 6 5 5 5 5 5 5 5 5 4 3 3 3 3 2 2 2 1 1 1 1 2 2 2 1 1 1 2 2 12 11 9